EW7067 Weather Reports


Display with metric or nautical units.
time (UTC)temp
F
wind
direction
speed
MPH
gust
MPH
rain 1hr
in
rain 24hr
in
rain mn
in
humidity
%
barometer
mb
20260502130625 53 36 2.0 5.0 0.00 0.00 0.00 65 968.9
20260502123549 53 47 0.0 3.0 0.00 0.00 0.00 75 968.7
20260502123045 53 22 0.0 2.0 0.00 0.00 0.00 77 968.7
20260502122537 53 9 0.0 2.0 0.00 0.00 0.00 77 968.8
20260502122031 53 5 1.0 4.0 0.00 0.00 0.00 77 969.0
20260502121019 53 33 0.0 3.0 0.00 0.00 0.00 80 968.7
20260502115502 52 31 0.0 2.0 0.00 0.00 0.00 81 968.3
20260502114457 52 24 0.0 0.0 0.00 0.00 0.00 81 968.6
20260502113956 52 24 0.0 0.0 0.00 0.00 0.00 81 968.8
20260502113452 52 24 0.0 0.0 0.00 0.00 0.00 81 968.6
20260502111951 52 24 0.0 0.0 0.00 0.00 0.00 81 968.5
20260502111449 52 23 0.0 3.0 0.00 0.00 0.00 81 968.4
20260502110949 52 23 1.0 5.0 0.00 0.00 0.00 79 968.4
20260502110449 52 24 0.0 5.0 0.00 0.00 0.00 79 968.4
20260502105446 52 28 0.0 0.0 0.00 0.00 0.00 79 968.5
20260502104949 52 28 0.0 0.0 0.00 0.00 0.00 80 968.3
20260502104448 52 28 0.0 2.0 0.00 0.00 0.00 80 968.2
20260502103948 52 28 0.0 2.0 0.00 0.00 0.00 79 968.2
20260502103443 52 26 0.0 2.0 0.00 0.00 0.00 80 968.1
20260502102943 52 26 0.0 3.0 0.00 0.00 0.00 79 968.1
20260502102444 52 26 1.0 5.0 0.00 0.00 0.00 80 968.1
20260502101940 52 9 2.0 5.0 0.00 0.00 0.00 80 968.2
20260502101441 52 70 2.0 5.0 0.00 0.00 0.00 81 968.0
20260502100941 52 56 1.0 3.0 0.00 0.00 0.00 82 968.0
20260502100440 52 56 0.0 3.0 0.00 0.00 0.00 83 968.0
20260502091440 51 31 0.0 3.0 0.00 0.00 0.00 88 968.6
20260502090441 51 123 0.0 2.0 0.00 0.00 0.00 91 968.5
20260502071331 51 193 0.0 0.0 0.00 0.00 0.00 93 967.6
20260502070824 51 193 0.0 0.0 0.00 0.00 0.00 93 967.5
20260502070318 51 193 0.0 0.0 0.00 0.00 0.00 93 967.4
20260502065306 50 193 0.0 0.0 0.00 0.00 0.00 93 967.6
20260502064800 50 193 0.0 0.0 0.00 0.00 0.00 93 967.6
20260502063746 50 193 0.0 0.0 0.00 0.00 0.00 93 967.5
20260502062736 50 193 0.0 0.0 0.00 0.00 0.00 93 967.6
20260502062231 51 193 0.0 0.0 0.00 0.00 0.00 93 967.6
20260502061218 51 193 0.0 1.0 0.00 0.00 0.00 93 967.8
20260502060713 51 202 0.0 1.0 0.00 0.00 0.00 93 967.9
20260502060206 50 202 0.0 0.0 0.00 0.00 0.00 93 968.0
20260502055700 50 202 0.0 0.0 0.00 0.00 0.00 93 968.1
20260502055154 50 202 0.0 0.0 0.00 0.00 0.00 93 968.0
20260502054649 51 202 0.0 0.0 0.00 0.00 0.00 93 968.2
20260502054144 51 202 0.0 0.0 0.00 0.00 0.00 93 968.2
20260502053637 51 202 0.0 0.0 0.00 0.00 0.00 93 968.1
20260502053131 51 202 0.0 0.0 0.00 0.00 0.00 93 968.0
20260502052624 51 202 0.0 0.0 0.00 0.00 0.00 93 968.1
20260502052118 51 202 0.0 0.0 0.00 0.00 0.00 93 968.2
20260502051612 51 202 0.0 0.0 0.00 0.00 0.00 93 968.1
20260502051104 51 202 0.0 0.0 0.00 0.00 0.00 93 967.9
20260502050557 51 202 0.0 0.0 0.00 0.00 0.00 93 967.9
20260502050052 51 202 0.0 0.0 0.00 0.00 0.00 93 968.0
20260502045546 51 202 0.0 0.0 0.00 0.00 0.00 92 967.9
20260502045044 51 202 0.0 0.0 0.00 0.00 0.00 92 967.9
20260502044530 51 202 0.0 0.0 0.00 0.00 0.00 92 967.9
20260502044024 51 202 0.0 0.0 0.00 0.00 0.00 92 967.9
20260502043517 51 203 0.0 0.0 0.00 0.00 0.00 92 967.9
20260502043012 51 203 0.0 0.0 0.00 0.00 0.00 92 968.1
20260502042506 51 203 0.0 0.0 0.00 0.00 0.00 92 968.1
20260502042000 51 203 0.0 0.0 0.00 0.00 0.00 92 968.1
20260502041454 52 203 0.0 0.0 0.00 0.00 0.00 92 968.0
20260502040948 52 203 0.0 0.0 0.00 0.00 0.00 91 968.0
20260502040442 52 203 0.0 0.0 0.00 0.00 0.00 91 968.1
20260502035935 52 203 0.0 0.0 0.00 0.00 0.00 91 968.0
20260502035429 52 203 0.0 0.0 0.00 0.00 0.00 91 968.1
20260502034924 52 203 0.0 0.0 0.00 0.00 0.00 90 968.2
20260502034417 52 203 0.0 0.0 0.00 0.00 0.00 90 968.1
20260502033911 52 203 0.0 0.0 0.00 0.00 0.00 90 968.2
20260502033407 52 203 0.0 0.0 0.00 0.00 0.00 89 968.2
20260502032354 53 203 0.0 0.0 0.00 0.00 0.00 89 968.4
20260502031847 53 203 0.0 0.0 0.00 0.00 0.00 88 968.4
20260502031341 53 203 0.0 0.0 0.00 0.00 0.00 88 968.4
20260502030835 53 203 0.0 0.0 0.00 0.00 0.00 88 968.3
20260502030329 53 203 0.0 0.0 0.00 0.00 0.00 87 968.5
20260502025823 54 203 0.0 0.0 0.00 0.00 0.00 87 968.6
20260502025318 54 203 0.0 0.0 0.00 0.00 0.00 87 968.6
20260502024305 54 203 0.0 0.0 0.00 0.00 0.00 86 968.6
20260502023759 55 203 0.0 0.0 0.00 0.00 0.00 85 968.5
20260502023254 55 203 0.0 0.0 0.00 0.00 0.00 84 968.4
20260502022747 56 203 0.0 3.0 0.00 0.00 0.00 83 968.4
20260502022243 56 203 0.0 3.0 0.00 0.00 0.00 82 968.3
20260502021230 56 203 1.0 4.0 0.00 0.00 0.00 81 968.4
20260502020218 56 184 1.0 8.0 0.00 0.00 0.00 81 968.3
20260502015712 56 167 1.0 8.0 0.00 0.00 0.00 81 968.2
20260502014700 56 223 0.0 0.0 0.00 0.00 0.00 81 968.0
20260502014154 56 223 0.0 0.0 0.00 0.00 0.00 81 967.9
20260502013142 56 223 0.0 0.0 0.00 0.00 0.00 81 967.9
20260502012129 56 223 0.0 0.0 0.00 0.00 0.00 80 968.0
20260502011624 57 223 0.0 0.0 0.00 0.00 0.00 80 968.0
20260502011118 57 223 0.0 0.0 0.00 0.00 0.00 79 967.9
20260502010612 57 223 0.0 0.0 0.00 0.00 0.00 79 967.8
20260502010107 57 223 0.0 0.0 0.00 0.00 0.00 78 967.9
20260502005600 57 223 0.0 0.0 0.00 0.00 0.00 77 967.8
20260502005053 58 223 0.0 0.0 0.00 0.00 0.00 77 967.8
20260502004547 58 223 0.0 0.0 0.00 0.00 0.00 76 967.6
20260502004043 58 223 0.0 0.0 0.00 0.00 0.00 76 967.6
20260502003537 58 223 0.0 0.0 0.00 0.00 0.00 76 967.5
20260502003029 59 223 0.0 0.0 0.00 0.00 0.00 75 967.5
20260502002524 59 223 0.0 0.0 0.00 0.00 0.00 74 967.3
20260502001512 60 223 0.0 0.0 0.00 0.00 0.00 72 967.0
20260502001006 60 223 0.0 2.0 0.00 0.00 0.00 70 966.8
20260501235953 61 223 0.0 4.0 0.00 0.00 0.00 68 966.9
20260501235448 61 223 0.0 4.0 0.00 0.00 0.00 68 966.9
20260501234942 62 132 0.0 4.0 0.00 0.00 0.00 68 966.7
20260501233929 62 132 2.0 6.0 0.00 0.00 0.00 66 966.5
20260501233424 62 200 2.0 6.0 0.00 0.00 0.00 65 966.4
20260501232918 63 189 1.0 6.0 0.00 0.00 0.00 64 966.4
20260501232412 63 158 1.0 4.0 0.00 0.00 0.00 63 966.6
20260501231906 64 179 1.0 5.0 0.00 0.00 0.00 62 966.6
20260501231400 64 177 2.0 10.0 0.00 0.00 0.00 62 966.6
20260501230853 65 188 2.0 10.0 0.00 0.00 0.00 61 966.7
20260501230347 65 191 1.0 6.0 0.00 0.00 0.00 60 966.7
20260501225842 65 184 0.0 6.0 0.00 0.00 0.00 61 966.8
20260501225336 65 222 1.0 4.0 0.00 0.00 0.00 62 966.8
20260501224324 65 204 3.0 12.0 0.00 0.00 0.00 62 966.8
20260501223818 65 189 4.0 12.0 0.00 0.00 0.00 61 966.9
20260501222806 65 238 3.0 10.0 0.00 0.00 0.00 60 966.8
20260501222305 65 153 3.0 10.0 0.00 0.00 0.00 60 966.7
20260501221248 66 214 5.0 13.0 0.00 0.00 0.00 59 966.7
20260501220743 66 134 3.0 10.0 0.00 0.00 0.00 58 966.6
20260501215223 67 155 1.0 7.0 0.00 0.00 0.00 59 966.7
20260501214718 67 350 2.0 10.0 0.00 0.00 0.00 58 966.8
20260501214213 67 175 2.0 10.0 0.00 0.00 0.00 57 966.9
20260501213706 66 132 2.0 9.0 0.00 0.00 0.00 59 967.0
20260501213159 66 227 2.0 11.0 0.00 0.00 0.00 59 966.9
20260501212148 66 300 3.0 9.0 0.00 0.00 0.00 59 967.0
20260501211642 66 241 3.0 9.0 0.00 0.00 0.00 60 967.0
20260501211136 66 204 4.0 14.0 0.00 0.00 0.00 58 967.1
20260501210631 66 168 3.0 14.0 0.00 0.00 0.00 57 967.1
20260501205630 67 198 2.0 9.0 0.00 0.00 0.00 56 967.1
20260501205129 67 207 2.0 9.0 0.00 0.00 0.00 55 967.1
20260501204630 67 161 1.0 6.0 0.00 0.00 0.00 56 967.0
20260501204128 67 262 2.0 9.0 0.00 0.00 0.00 55 966.9
20260501203127 67 169 2.0 7.0 0.00 0.00 0.00 55 967.1
20260501202625 67 155 1.0 8.0 0.00 0.00 0.00 57 967.2
20260501202125 66 217 2.0 8.0 0.00 0.00 0.00 54 967.3
20260501201625 67 148 2.0 8.0 0.00 0.00 0.00 55 967.4
20260501201126 67 121 1.0 6.0 0.00 0.00 0.00 56 967.4
20260501200622 67 266 1.0 6.0 0.00 0.00 0.00 54 967.5
20260501200121 67 199 1.0 5.0 0.00 0.00 0.00 53 967.6
20260501195621 67 232 2.0 10.0 0.00 0.00 0.00 54 967.6
20260501195122 67 163 3.0 10.0 0.00 0.00 0.00 55 967.7
20260501194121 67 193 4.0 11.0 0.00 0.00 0.00 53 967.8
20260501193622 67 248 3.0 11.0 0.00 0.00 0.00 51 967.8
20260501193121 68 180 2.0 10.0 0.00 0.00 0.00 54 968.0
20260501191621 67 323 2.0 11.0 0.00 0.00 0.00 54 968.3
20260501191122 67 282 3.0 11.0 0.00 0.00 0.00 53 968.5
20260501190622 67 302 2.0 8.0 0.00 0.00 0.00 53 968.5
20260501185621 66 297 1.0 7.0 0.00 0.00 0.00 52 968.7
20260501184621 65 121 1.0 6.0 0.00 0.00 0.00 54 968.7
20260501183622 65 121 3.0 11.0 0.00 0.00 0.00 53 968.9
20260501183121 65 162 3.0 11.0 0.00 0.00 0.00 52 968.9
20260501182122 65 163 2.0 7.0 0.00 0.00 0.00 57 969.1
20260501181619 65 118 2.0 7.0 0.00 0.00 0.00 52 969.2
20260501181120 65 185 1.0 5.0 0.00 0.00 0.00 53 969.3
20260501180619 64 211 1.0 5.0 0.00 0.00 0.00 53 969.4
20260501180117 64 315 1.0 9.0 0.00 0.00 0.00 54 969.5
20260501175618 64 296 1.0 9.0 0.00 0.00 0.00 55 969.6
20260501175117 63 169 2.0 8.0 0.00 0.00 0.00 56 969.7
20260501174615 63 355 2.0 8.0 0.00 0.00 0.00 53 969.8
20260501174116 63 270 0.0 3.0 0.00 0.00 0.00 56 969.8
20260501173617 63 126 1.0 7.0 0.00 0.00 0.00 54 969.8
20260501173113 63 169 1.0 7.0 0.00 0.00 0.00 54 969.8
20260501172615 63 172 1.0 6.0 0.00 0.00 0.00 55 969.8
20260501172105 62 46 2.0 6.0 0.00 0.00 0.00 55 969.9
20260501171601 62 0 1.0 5.0 0.00 0.00 0.00 50 970.1
20260501171102 62 235 2.0 8.0 0.00 0.00 0.00 52 970.1
20260501170059 62 172 1.0 4.0 0.00 0.00 0.00 54 970.2
20260501165055 61 269 2.0 10.0 0.00 0.00 0.00 54 970.3
20260501164555 61 167 1.0 8.0 0.00 0.00 0.00 56 970.3
20260501164055 61 192 2.0 8.0 0.00 0.00 0.00 55 970.4
20260501163555 60 240 1.0 8.0 0.00 0.00 0.00 57 970.5
20260501163055 60 236 2.0 10.0 0.00 0.00 0.00 57 970.6
20260501162553 60 155 2.0 11.0 0.00 0.00 0.00 59 970.7
20260501162053 60 25 1.0 11.0 0.00 0.00 0.00 58 970.7
20260501161553 60 170 1.0 4.0 0.00 0.00 0.00 58 970.7
20260501161051 60 36 1.0 4.0 0.00 0.00 0.00 56 970.8
20260501160554 59 341 1.0 3.0 0.00 0.00 0.00 57 970.9
20260501160051 59 20 1.0 4.0 0.00 0.00 0.00 57 970.9
20260501155553 59 61 1.0 4.0 0.00 0.00 0.00 58 971.0
20260501154543 58 77 2.0 5.0 0.00 0.00 0.00 57 971.3
20260501154037 58 37 3.0 9.0 0.00 0.00 0.00 57 971.3
20260501153530 58 67 2.0 9.0 0.00 0.00 0.00 57 971.3
20260501153024 58 76 1.0 4.0 0.00 0.00 0.00 59 971.3
20260501152519 58 88 1.0 3.0 0.00 0.00 0.00 58 971.3
20260501152012 58 317 1.0 6.0 0.00 0.00 0.00 59 971.3
20260501151507 58 55 2.0 9.0 0.00 0.00 0.00 59 971.5
20260501151001 58 71 2.0 9.0 0.00 0.00 0.00 59 971.5
20260501150455 58 62 2.0 9.0 0.00 0.00 0.00 60 971.4
20260501145949 57 31 1.0 9.0 0.00 0.00 0.00 59 971.4
20260501145444 57 246 2.0 10.0 0.00 0.00 0.00 60 971.4
20260501144936 57 128 2.0 10.0 0.00 0.00 0.00 60 971.4
20260501144431 57 82 2.0 9.0 0.00 0.00 0.00 60 971.4
20260501143924 57 53 2.0 9.0 0.00 0.00 0.00 61 971.4
20260501143418 57 11 2.0 14.0 0.00 0.00 0.00 62 971.5
20260501142913 56 69 3.0 14.0 0.00 0.00 0.00 62 971.5
20260501141900 56 29 2.0 9.0 0.00 0.00 0.00 63 971.5
20260501141355 56 34 3.0 9.0 0.00 0.00 0.00 64 971.5